User: anonymous   Login
Location: Unspecified
(0.0000°N, 0.0000°E)
Time: 07:47:40
(UTC+00:00)
Language:

UNK - Orbit

View from above orbital plane
View from above orbital plane
View from above satellite
View from above satellite

Ground track
Ground track

The orbit data is extracted from the following two-line orbital elements,

1 27945U 03042G   19082.92158673 -.00000006 +00000-0 +76709-5 0  9998
2 27945 098.0304 216.0439 0012389 016.2863 343.8736 14.64827725826980
Epoch (UTC): 23 March 2019 22:07:05
Eccentricity: 0.0012389
inclination: 98.0304°
perigee height: 669 km
apogee height: 686 km
right ascension of ascending node: 216.0439°
argument of perigee: 16.2863°
revolutions per day: 14.64827725
mean anomaly at epoch: 343.8736°
orbit number at epoch: 82698

The dashed part of the orbit path shows where the satellite is in the earth's shadow,  

DLR